This is the latest recevied weather packets stored in our database for station/object HS3UAA-1. If no packets are shown the sender has not sent any weather packets the latest 10 day(s).
| Time | Temp. | Humidity | Pressure | Rain* | Wind** | Luminosity | Snow |
|---|---|---|---|---|---|---|---|
| 1788141064 | 29.44° C | 50% | 997 hPa | - | - | 0 W/m² | - |
| 1788140742 | 29.44° C | 49% | 997 hPa | - | - | 0 W/m² | - |
| 1788140420 | 29.44° C | 50% | 997 hPa | - | - | 0 W/m² | - |
| 1788140098 | 29.44° C | 53% | 997 hPa | - | - | 0 W/m² | - |
| 1788139776 | 29.44° C | 51% | 997 hPa | - | - | 0 W/m² | - |
| 1788139454 | 29.44° C | 50% | 997 hPa | - | - | 0 W/m² | - |
| 1788139132 | 29.44° C | 50% | 997 hPa | - | - | 0 W/m² | - |
| 1788138810 | 29.44° C | 52% | 997 hPa | - | - | 0 W/m² | - |
| 1788138488 | 29.44° C | 53% | 997 hPa | - | - | 0 W/m² | - |
| 1788138166 | 29.44° C | 52% | 996 hPa | - | - | 0 W/m² | - |
| 1788137844 | 29.44° C | 51% | 996 hPa | - | - | 0 W/m² | - |
| 1788137521 | 29.44° C | 49% | 996 hPa | - | - | 0 W/m² | - |
| 1788137199 | 29.44° C | 48% | 996 hPa | - | - | 0 W/m² | - |
| 1788136877 | 29.44° C | 49% | 996 hPa | - | - | 0 W/m² | - |
| 1788136555 | 29.44° C | 50% | 996 hPa | - | - | 0 W/m² | - |
| 1788136233 | 30° C | 50% | 996 hPa | - | - | 0 W/m² | - |
| 1788135911 | 29.44° C | 49% | 996 hPa | - | - | 0 W/m² | - |
| 1788135589 | 30° C | 46% | 996 hPa | - | - | 0 W/m² | - |
| 1788135267 | 30° C | 46% | 996 hPa | - | - | 0 W/m² | - |
| 1788134945 | 30.56° C | 47% | 996 hPa | - | - | 0 W/m² | - |
| 1788134623 | 30.56° C | 43% | 996 hPa | - | - | 0 W/m² | - |
| 1788134301 | 31.11° C | 42% | 996 hPa | - | - | 0 W/m² | - |
| 1788133979 | 32.22° C | 45% | 996 hPa | - | - | 0 W/m² | - |
| 1788133657 | 33.89° C | 49% | 996 hPa | - | - | 0 W/m² | - |
| 1788133335 | 34.44° C | 48% | 996 hPa | - | - | 0 W/m² | - |
* Rain since midnight (hover to see other rain measurements)
** Current wind speed in m/s (hover to see current wind gust speed)